Change the Weather History Date:

Monday, November 17, 2014

  Actual Average Record
Temperature  
Mean Temperature 34 °F -  
Max Temperature 37 °F 38 °F 50 °F (2005)
Min Temperature 30 °F 30 °F 11 °F (1985)
Degree Days  
Heating Degree Days 32    
Moisture  
Dew Point 30 °F    
Average Humidity 88    
Maximum Humidity 93    
Minimum Humidity 81    
Precipitation  
Precipitation 0.00 in - - ()
Sea Level Pressure  
Sea Level Pressure 30.25 in    
Wind  
Wind Speed 1 mph (SSE)    
Max Wind Speed 5 mph    
Max Gust Speed -    
Visibility 10 miles    
Events Fog    
Averages and records for this station are not official NWS values.
T = Trace of Precipitation, MM = Missing Value Source: NWS Daily Summary

Daily Weather History Graph

Daily Weather History Graph

Search for Another Location

Airport or City:

Trip Planner

Search our weather history database for the weather conditions in past years. The results will help you decide how hot, cold, wet, or windy it might be!

Date:

Astronomy

Nov. 17, 2014 Rise Set
Actual Time 7:36 AM AKST 3:36 PM AKST
Civil Twilight 6:53 AM AKST 4:20 PM AKST
Nautical Twilight 6:05 AM AKST 5:07 PM AKST
Astronomical Twilight 5:20 AM AKST 5:52 PM AKST
Moon 1:48 AM AKST (11/17) 1:55 PM AKST (11/17)
Length of Visible Light 9h 27m
Length of Day
7h 59m
Waning Crescent, 21% of the Moon is Illuminated
Nov 17
Waning Crescent
Nov 22
New
Nov 29
First Quarter
Dec 6
Full
Dec 14
Last Quarter

Hourly Weather History & Observations

Time (AKST) Temp. Windchill Dew Point Humidity Pressure Visibility Wind Dir Wind Speed Gust Speed Precip Events Conditions
1:25 AM 33.8 °F - 30.2 °F 87% 30.40 in 10.0 mi Calm Calm - N/A   Overcast
2:57 AM 33.8 °F - 30.2 °F 87% 30.38 in 10.0 mi Calm Calm - N/A   Overcast
4:52 AM 33.8 °F 29.6 °F 30.2 °F 87% 30.37 in 10.0 mi WSW 4.6 mph - N/A   Overcast
6:00 AM 33.8 °F - 30.2 °F 87% 30.35 in 10.0 mi Calm Calm - N/A   Overcast
6:56 AM 33.8 °F - 30.2 °F 87% 30.35 in 10.0 mi Calm Calm - N/A   Overcast
7:56 AM 33.8 °F - 30.2 °F 87% 30.34 in 10.0 mi Calm Calm - N/A   Overcast
8:56 AM 33.8 °F 30.8 °F 30.2 °F 87% 30.34 in 10.0 mi SSW 3.5 mph - N/A   Mostly Cloudy
9:56 AM 35.6 °F 32.8 °F 32.0 °F 87% 30.32 in 10.0 mi South 3.5 mph - N/A   Mostly Cloudy
10:56 AM 35.6 °F - 33.8 °F 93% 30.31 in 10.0 mi Calm Calm - N/A   Mostly Cloudy
11:56 AM 37.4 °F 33.8 °F 33.8 °F 87% 30.30 in 10.0 mi NE 4.6 mph - N/A Fog Patches of Fog
12:56 PM 37.4 °F 33.8 °F 32.0 °F 81% 30.27 in 10.0 mi NE 4.6 mph - N/A   Partly Cloudy
1:56 PM 37.4 °F - 32.0 °F 81% 30.25 in 10.0 mi Calm Calm - N/A   Partly Cloudy
2:56 PM 33.8 °F 30.8 °F 30.2 °F 87% 30.24 in 10.0 mi SE 3.5 mph - N/A   Scattered Clouds
3:56 PM 33.8 °F - 30.2 °F 87% 30.21 in 10.0 mi Calm Calm - N/A   Partly Cloudy
4:56 PM 32.0 °F - 28.4 °F 87% 30.21 in 10.0 mi Calm Calm - N/A   Partly Cloudy
5:56 PM 32.0 °F - 30.2 °F 93% 30.18 in 0.8 mi Calm Calm - N/A   Mostly Cloudy
6:56 PM 30.2 °F - 28.4 °F 93% 30.15 in 10.0 mi Calm Calm - N/A   Mostly Cloudy
7:56 PM 30.2 °F 26.7 °F 28.4 °F 93% 30.13 in 10.0 mi South 3.5 mph - N/A   Scattered Clouds
8:56 PM 30.2 °F 26.7 °F 28.4 °F 93% 30.10 in 10.0 mi South 3.5 mph - N/A   Clear
9:56 PM 32.0 °F - 30.2 °F 93% 30.09 in 10.0 mi Calm Calm - N/A   Clear
11:01 PM 33.8 °F 30.8 °F 30.2 °F 87% 30.09 in 10.0 mi East 3.5 mph - N/A   Overcast
11:54 PM 33.8 °F - 30.2 °F 87% 30.08 in 10.0 mi Calm Calm - N/A   Overcast